<?xml version="1.0" encoding="UTF-8" standalone="no" ?>
<gpx xmlns="http://www.topografix.com/GPX/1/1" xmlns:xsi="http://www.w3.org/2001/XMLSchema-instance" xsi:schemaLocation="http://www.topografix.com/GPX/1/1 http://www.topografix.com/GPX/1/1/gpx.xsd" version="1.1" creator="VisuGPX - https://www.visugpx.com">
  <metadata>
    <name>La Bruffière</name>
    <desc><![CDATA[Rando qui flirte avec la Sèvre Nantaise.]]></desc>
  </metadata>
  <trk>
    <name><![CDATA[La Bruffière_1]]></name>
    <trkseg>
      <trkpt lat="47.01465" lon="-1.19564">
        <ele>62</ele>
        <time>2012-10-21T07:18:09Z</time>
      </trkpt>
      <trkpt lat="47.01377" lon="-1.19464">
        <ele>59.2</ele>
        <time>2012-10-21T07:18:09Z</time>
      </trkpt>
      <trkpt lat="47.01356" lon="-1.19319">
        <ele>56.3</ele>
        <time>2012-10-21T07:18:09Z</time>
      </trkpt>
      <trkpt lat="47.0141" lon="-1.1924">
        <ele>54.5</ele>
        <time>2012-10-21T07:18:09Z</time>
      </trkpt>
      <trkpt lat="47.01472" lon="-1.19139">
        <ele>54</ele>
        <time>2012-10-21T07:18:09Z</time>
      </trkpt>
      <trkpt lat="47.01474" lon="-1.19035">
        <ele>55.3</ele>
        <time>2012-10-21T07:18:09Z</time>
      </trkpt>
      <trkpt lat="47.01537" lon="-1.18938">
        <ele>54.1</ele>
        <time>2012-10-21T07:18:09Z</time>
      </trkpt>
      <trkpt lat="47.01597" lon="-1.18857">
        <ele>53.7</ele>
        <time>2012-10-21T07:18:09Z</time>
      </trkpt>
      <trkpt lat="47.01664" lon="-1.1876">
        <ele>52.1</ele>
        <time>2012-10-21T07:18:09Z</time>
      </trkpt>
      <trkpt lat="47.01713" lon="-1.18647">
        <ele>53.3</ele>
        <time>2012-10-21T07:18:09Z</time>
      </trkpt>
      <trkpt lat="47.01652" lon="-1.18552">
        <ele>61.5</ele>
        <time>2012-10-21T07:18:09Z</time>
      </trkpt>
      <trkpt lat="47.01584" lon="-1.1846">
        <ele>63</ele>
        <time>2012-10-21T07:18:09Z</time>
      </trkpt>
      <trkpt lat="47.01508" lon="-1.18361">
        <ele>63.4</ele>
        <time>2012-10-21T07:18:09Z</time>
      </trkpt>
      <trkpt lat="47.01424" lon="-1.18348">
        <ele>65</ele>
        <time>2012-10-21T07:18:09Z</time>
      </trkpt>
      <trkpt lat="47.01359" lon="-1.18248">
        <ele>65</ele>
        <time>2012-10-21T07:18:09Z</time>
      </trkpt>
      <trkpt lat="47.0128" lon="-1.18177">
        <ele>64.6</ele>
        <time>2012-10-21T07:18:09Z</time>
      </trkpt>
      <trkpt lat="47.01219" lon="-1.18103">
        <ele>66.1</ele>
        <time>2012-10-21T07:18:09Z</time>
      </trkpt>
      <trkpt lat="47.01247" lon="-1.17953">
        <ele>61.5</ele>
        <time>2012-10-21T07:18:09Z</time>
      </trkpt>
      <trkpt lat="47.01252" lon="-1.17818">
        <ele>62.7</ele>
        <time>2012-10-21T07:18:09Z</time>
      </trkpt>
      <trkpt lat="47.0126" lon="-1.17687">
        <ele>68</ele>
        <time>2012-10-21T07:18:09Z</time>
      </trkpt>
      <trkpt lat="47.01274" lon="-1.17543">
        <ele>71.5</ele>
        <time>2012-10-21T07:18:09Z</time>
      </trkpt>
      <trkpt lat="47.01306" lon="-1.17402">
        <ele>75</ele>
        <time>2012-10-21T07:18:09Z</time>
      </trkpt>
      <trkpt lat="47.01302" lon="-1.1724">
        <ele>76.1</ele>
        <time>2012-10-21T07:18:09Z</time>
      </trkpt>
      <trkpt lat="47.01283" lon="-1.17083">
        <ele>78</ele>
        <time>2012-10-21T07:18:09Z</time>
      </trkpt>
      <trkpt lat="47.01271" lon="-1.16931">
        <ele>77.9</ele>
        <time>2012-10-21T07:18:09Z</time>
      </trkpt>
      <trkpt lat="47.01256" lon="-1.1677">
        <ele>78.2</ele>
        <time>2012-10-21T07:18:09Z</time>
      </trkpt>
      <trkpt lat="47.01245" lon="-1.16608">
        <ele>77.9</ele>
        <time>2012-10-21T07:18:09Z</time>
      </trkpt>
      <trkpt lat="47.01221" lon="-1.16461">
        <ele>78</ele>
        <time>2012-10-21T07:18:09Z</time>
      </trkpt>
      <trkpt lat="47.01232" lon="-1.16308">
        <ele>78.9</ele>
        <time>2012-10-21T07:18:09Z</time>
      </trkpt>
      <trkpt lat="47.01279" lon="-1.16178">
        <ele>80</ele>
        <time>2012-10-21T07:18:09Z</time>
      </trkpt>
      <trkpt lat="47.01267" lon="-1.16055">
        <ele>81.4</ele>
        <time>2012-10-21T07:18:09Z</time>
      </trkpt>
      <trkpt lat="47.01217" lon="-1.15919">
        <ele>83</ele>
        <time>2012-10-21T07:18:09Z</time>
      </trkpt>
      <trkpt lat="47.01187" lon="-1.15788">
        <ele>82</ele>
        <time>2012-10-21T07:18:09Z</time>
      </trkpt>
      <trkpt lat="47.01142" lon="-1.15653">
        <ele>81.4</ele>
        <time>2012-10-21T07:18:09Z</time>
      </trkpt>
      <trkpt lat="47.01087" lon="-1.15546">
        <ele>82.9</ele>
        <time>2012-10-21T07:18:09Z</time>
      </trkpt>
      <trkpt lat="47.01056" lon="-1.15439">
        <ele>83</ele>
        <time>2012-10-21T07:18:09Z</time>
      </trkpt>
      <trkpt lat="47.01015" lon="-1.1529">
        <ele>85.3</ele>
        <time>2012-10-21T07:18:09Z</time>
      </trkpt>
      <trkpt lat="47.00994" lon="-1.15139">
        <ele>87</ele>
        <time>2012-10-21T07:18:09Z</time>
      </trkpt>
      <trkpt lat="47.00956" lon="-1.14995">
        <ele>87</ele>
        <time>2012-10-21T07:18:09Z</time>
      </trkpt>
      <trkpt lat="47.0087" lon="-1.14988">
        <ele>88.3</ele>
        <time>2012-10-21T07:18:09Z</time>
      </trkpt>
      <trkpt lat="47.00848" lon="-1.14855">
        <ele>89.1</ele>
        <time>2012-10-21T07:18:09Z</time>
      </trkpt>
      <trkpt lat="47.00885" lon="-1.14748">
        <ele>90</ele>
        <time>2012-10-21T07:18:09Z</time>
      </trkpt>
      <trkpt lat="47.0096" lon="-1.14754">
        <ele>89</ele>
        <time>2012-10-21T07:18:09Z</time>
      </trkpt>
      <trkpt lat="47.00948" lon="-1.14598">
        <ele>90</ele>
        <time>2012-10-21T07:18:09Z</time>
      </trkpt>
      <trkpt lat="47.00969" lon="-1.14453">
        <ele>91.7</ele>
        <time>2012-10-21T07:18:09Z</time>
      </trkpt>
      <trkpt lat="47.00996" lon="-1.14306">
        <ele>91</ele>
        <time>2012-10-21T07:18:09Z</time>
      </trkpt>
      <trkpt lat="47.01004" lon="-1.1415">
        <ele>92.6</ele>
        <time>2012-10-21T07:18:09Z</time>
      </trkpt>
      <trkpt lat="47.01023" lon="-1.14008">
        <ele>95.1</ele>
        <time>2012-10-21T07:18:09Z</time>
      </trkpt>
      <trkpt lat="47.01039" lon="-1.13875">
        <ele>96.4</ele>
        <time>2012-10-21T07:18:09Z</time>
      </trkpt>
      <trkpt lat="47.01057" lon="-1.13705">
        <ele>97.9</ele>
        <time>2012-10-21T07:18:09Z</time>
      </trkpt>
      <trkpt lat="47.01119" lon="-1.13625">
        <ele>95.1</ele>
        <time>2012-10-21T07:18:09Z</time>
      </trkpt>
      <trkpt lat="47.01211" lon="-1.13644">
        <ele>92.2</ele>
        <time>2012-10-21T07:18:09Z</time>
      </trkpt>
      <trkpt lat="47.0129" lon="-1.13585">
        <ele>91.1</ele>
        <time>2012-10-21T07:18:09Z</time>
      </trkpt>
      <trkpt lat="47.01348" lon="-1.13478">
        <ele>87</ele>
        <time>2012-10-21T07:18:09Z</time>
      </trkpt>
      <trkpt lat="47.01431" lon="-1.13422">
        <ele>81.5</ele>
        <time>2012-10-21T07:18:09Z</time>
      </trkpt>
      <trkpt lat="47.01512" lon="-1.13391">
        <ele>77.1</ele>
        <time>2012-10-21T07:18:09Z</time>
      </trkpt>
      <trkpt lat="47.01592" lon="-1.13344">
        <ele>78.2</ele>
        <time>2012-10-21T07:18:09Z</time>
      </trkpt>
      <trkpt lat="47.01679" lon="-1.13301">
        <ele>77.6</ele>
        <time>2012-10-21T07:18:09Z</time>
      </trkpt>
      <trkpt lat="47.0177" lon="-1.1326">
        <ele>74.9</ele>
        <time>2012-10-21T07:18:09Z</time>
      </trkpt>
      <trkpt lat="47.01849" lon="-1.13226">
        <ele>67.4</ele>
        <time>2012-10-21T07:18:09Z</time>
      </trkpt>
      <trkpt lat="47.01921" lon="-1.1315">
        <ele>61.2</ele>
        <time>2012-10-21T07:18:09Z</time>
      </trkpt>
      <trkpt lat="47.01981" lon="-1.13073">
        <ele>60.4</ele>
        <time>2012-10-21T07:18:09Z</time>
      </trkpt>
      <trkpt lat="47.02041" lon="-1.12974">
        <ele>56.6</ele>
        <time>2012-10-21T07:18:09Z</time>
      </trkpt>
      <trkpt lat="47.02083" lon="-1.12868">
        <ele>50</ele>
        <time>2012-10-21T07:18:09Z</time>
      </trkpt>
      <trkpt lat="47.02126" lon="-1.12849">
        <ele>44.9</ele>
        <time>2012-10-21T07:18:09Z</time>
      </trkpt>
      <trkpt lat="47.0216" lon="-1.12973">
        <ele>44.3</ele>
        <time>2012-10-21T07:18:09Z</time>
      </trkpt>
      <trkpt lat="47.02212" lon="-1.13083">
        <ele>44.4</ele>
        <time>2012-10-21T07:18:09Z</time>
      </trkpt>
      <trkpt lat="47.02249" lon="-1.13209">
        <ele>44.5</ele>
        <time>2012-10-21T07:18:09Z</time>
      </trkpt>
      <trkpt lat="47.02254" lon="-1.13326">
        <ele>44</ele>
        <time>2012-10-21T07:18:09Z</time>
      </trkpt>
      <trkpt lat="47.02298" lon="-1.13399">
        <ele>45.8</ele>
        <time>2012-10-21T07:18:09Z</time>
      </trkpt>
      <trkpt lat="47.02323" lon="-1.13485">
        <ele>50.8</ele>
        <time>2012-10-21T07:18:09Z</time>
      </trkpt>
      <trkpt lat="47.02348" lon="-1.136">
        <ele>56.3</ele>
        <time>2012-10-21T07:18:09Z</time>
      </trkpt>
      <trkpt lat="47.02325" lon="-1.13696">
        <ele>70</ele>
        <time>2012-10-21T07:18:09Z</time>
      </trkpt>
      <trkpt lat="47.02271" lon="-1.13797">
        <ele>75.9</ele>
        <time>2012-10-21T07:18:09Z</time>
      </trkpt>
      <trkpt lat="47.02215" lon="-1.13882">
        <ele>78.8</ele>
        <time>2012-10-21T07:18:09Z</time>
      </trkpt>
      <trkpt lat="47.02151" lon="-1.13982">
        <ele>80.2</ele>
        <time>2012-10-21T07:18:09Z</time>
      </trkpt>
      <trkpt lat="47.02084" lon="-1.1409">
        <ele>77.3</ele>
        <time>2012-10-21T07:18:09Z</time>
      </trkpt>
      <trkpt lat="47.02112" lon="-1.14224">
        <ele>80</ele>
        <time>2012-10-21T07:18:09Z</time>
      </trkpt>
      <trkpt lat="47.02147" lon="-1.14363">
        <ele>84.1</ele>
        <time>2012-10-21T07:18:09Z</time>
      </trkpt>
      <trkpt lat="47.02188" lon="-1.14499">
        <ele>87</ele>
        <time>2012-10-21T07:18:09Z</time>
      </trkpt>
      <trkpt lat="47.02231" lon="-1.14636">
        <ele>89.6</ele>
        <time>2012-10-21T07:18:09Z</time>
      </trkpt>
      <trkpt lat="47.02299" lon="-1.14718">
        <ele>88</ele>
        <time>2012-10-21T07:18:09Z</time>
      </trkpt>
      <trkpt lat="47.02372" lon="-1.14782">
        <ele>88.1</ele>
        <time>2012-10-21T07:18:09Z</time>
      </trkpt>
      <trkpt lat="47.02415" lon="-1.14907">
        <ele>86.5</ele>
        <time>2012-10-21T07:18:09Z</time>
      </trkpt>
      <trkpt lat="47.02483" lon="-1.14991">
        <ele>83.1</ele>
        <time>2012-10-21T07:18:09Z</time>
      </trkpt>
      <trkpt lat="47.02548" lon="-1.15085">
        <ele>81.2</ele>
        <time>2012-10-21T07:18:09Z</time>
      </trkpt>
      <trkpt lat="47.02632" lon="-1.15124">
        <ele>74.7</ele>
        <time>2012-10-21T07:18:09Z</time>
      </trkpt>
      <trkpt lat="47.02723" lon="-1.15149">
        <ele>66.3</ele>
        <time>2012-10-21T07:18:09Z</time>
      </trkpt>
      <trkpt lat="47.02805" lon="-1.15148">
        <ele>57.7</ele>
        <time>2012-10-21T07:18:09Z</time>
      </trkpt>
      <trkpt lat="47.02884" lon="-1.15124">
        <ele>46.1</ele>
        <time>2012-10-21T07:18:09Z</time>
      </trkpt>
      <trkpt lat="47.02949" lon="-1.1516">
        <ele>43.8</ele>
        <time>2012-10-21T07:18:09Z</time>
      </trkpt>
      <trkpt lat="47.02993" lon="-1.1526">
        <ele>45.6</ele>
        <time>2012-10-21T07:18:09Z</time>
      </trkpt>
      <trkpt lat="47.03021" lon="-1.15385">
        <ele>44.4</ele>
        <time>2012-10-21T07:18:09Z</time>
      </trkpt>
      <trkpt lat="47.03064" lon="-1.15494">
        <ele>41.6</ele>
        <time>2012-10-21T07:18:09Z</time>
      </trkpt>
      <trkpt lat="47.0313" lon="-1.15569">
        <ele>42.7</ele>
        <time>2012-10-21T07:18:09Z</time>
      </trkpt>
      <trkpt lat="47.03174" lon="-1.15657">
        <ele>45.8</ele>
        <time>2012-10-21T07:18:09Z</time>
      </trkpt>
      <trkpt lat="47.03177" lon="-1.15788">
        <ele>54.7</ele>
        <time>2012-10-21T07:18:09Z</time>
      </trkpt>
      <trkpt lat="47.03172" lon="-1.15918">
        <ele>52.4</ele>
        <time>2012-10-21T07:18:09Z</time>
      </trkpt>
      <trkpt lat="47.03107" lon="-1.16008">
        <ele>62.5</ele>
        <time>2012-10-21T07:18:09Z</time>
      </trkpt>
      <trkpt lat="47.03086" lon="-1.16141">
        <ele>71.8</ele>
        <time>2012-10-21T07:18:09Z</time>
      </trkpt>
      <trkpt lat="47.03037" lon="-1.16233">
        <ele>81.5</ele>
        <time>2012-10-21T07:18:09Z</time>
      </trkpt>
      <trkpt lat="47.02974" lon="-1.16326">
        <ele>85</ele>
        <time>2012-10-21T07:18:09Z</time>
      </trkpt>
      <trkpt lat="47.02916" lon="-1.16428">
        <ele>86</ele>
        <time>2012-10-21T07:18:09Z</time>
      </trkpt>
      <trkpt lat="47.02921" lon="-1.16565">
        <ele>86</ele>
        <time>2012-10-21T07:18:09Z</time>
      </trkpt>
      <trkpt lat="47.02947" lon="-1.16709">
        <ele>86</ele>
        <time>2012-10-21T07:18:09Z</time>
      </trkpt>
      <trkpt lat="47.02977" lon="-1.16857">
        <ele>85.1</ele>
        <time>2012-10-21T07:18:09Z</time>
      </trkpt>
      <trkpt lat="47.02993" lon="-1.17003">
        <ele>86</ele>
        <time>2012-10-21T07:18:09Z</time>
      </trkpt>
      <trkpt lat="47.03015" lon="-1.17146">
        <ele>85</ele>
        <time>2012-10-21T07:18:09Z</time>
      </trkpt>
      <trkpt lat="47.03041" lon="-1.17303">
        <ele>82.6</ele>
        <time>2012-10-21T07:18:09Z</time>
      </trkpt>
      <trkpt lat="47.03055" lon="-1.17458">
        <ele>79</ele>
        <time>2012-10-21T07:18:09Z</time>
      </trkpt>
      <trkpt lat="47.03082" lon="-1.17585">
        <ele>76.9</ele>
        <time>2012-10-21T07:18:09Z</time>
      </trkpt>
      <trkpt lat="47.03084" lon="-1.17742">
        <ele>76</ele>
        <time>2012-10-21T07:18:09Z</time>
      </trkpt>
      <trkpt lat="47.03083" lon="-1.17901">
        <ele>75</ele>
        <time>2012-10-21T07:18:09Z</time>
      </trkpt>
      <trkpt lat="47.03086" lon="-1.18061">
        <ele>74.1</ele>
        <time>2012-10-21T07:18:09Z</time>
      </trkpt>
      <trkpt lat="47.03089" lon="-1.18202">
        <ele>71.7</ele>
        <time>2012-10-21T07:18:09Z</time>
      </trkpt>
      <trkpt lat="47.03112" lon="-1.18351">
        <ele>68</ele>
        <time>2012-10-21T07:18:09Z</time>
      </trkpt>
      <trkpt lat="47.03064" lon="-1.18441">
        <ele>67</ele>
        <time>2012-10-21T07:18:09Z</time>
      </trkpt>
      <trkpt lat="47.03009" lon="-1.18335">
        <ele>65.9</ele>
        <time>2012-10-21T07:18:09Z</time>
      </trkpt>
      <trkpt lat="47.02935" lon="-1.18308">
        <ele>66.9</ele>
        <time>2012-10-21T07:18:09Z</time>
      </trkpt>
      <trkpt lat="47.02849" lon="-1.18288">
        <ele>66.9</ele>
        <time>2012-10-21T07:18:09Z</time>
      </trkpt>
      <trkpt lat="47.02774" lon="-1.1829">
        <ele>65</ele>
        <time>2012-10-21T07:18:09Z</time>
      </trkpt>
      <trkpt lat="47.02709" lon="-1.18355">
        <ele>59.6</ele>
        <time>2012-10-21T07:18:09Z</time>
      </trkpt>
      <trkpt lat="47.02622" lon="-1.18348">
        <ele>59.7</ele>
        <time>2012-10-21T07:18:09Z</time>
      </trkpt>
      <trkpt lat="47.02559" lon="-1.18251">
        <ele>61</ele>
        <time>2012-10-21T07:18:09Z</time>
      </trkpt>
      <trkpt lat="47.02492" lon="-1.18167">
        <ele>59.1</ele>
        <time>2012-10-21T07:18:09Z</time>
      </trkpt>
      <trkpt lat="47.0246" lon="-1.1827">
        <ele>53.4</ele>
        <time>2012-10-21T07:18:09Z</time>
      </trkpt>
      <trkpt lat="47.02339" lon="-1.18278">
        <ele>49.2</ele>
        <time>2012-10-21T07:18:09Z</time>
      </trkpt>
      <trkpt lat="47.02259" lon="-1.18224">
        <ele>50.9</ele>
        <time>2012-10-21T07:18:09Z</time>
      </trkpt>
      <trkpt lat="47.02173" lon="-1.18217">
        <ele>52.3</ele>
        <time>2012-10-21T07:18:09Z</time>
      </trkpt>
      <trkpt lat="47.02111" lon="-1.18302">
        <ele>50.3</ele>
        <time>2012-10-21T07:18:09Z</time>
      </trkpt>
      <trkpt lat="47.0203" lon="-1.18318">
        <ele>51.9</ele>
        <time>2012-10-21T07:18:09Z</time>
      </trkpt>
      <trkpt lat="47.0196" lon="-1.18279">
        <ele>50.8</ele>
        <time>2012-10-21T07:18:09Z</time>
      </trkpt>
      <trkpt lat="47.01883" lon="-1.18318">
        <ele>52.3</ele>
        <time>2012-10-21T07:18:09Z</time>
      </trkpt>
      <trkpt lat="47.01819" lon="-1.184">
        <ele>53.5</ele>
        <time>2012-10-21T07:18:09Z</time>
      </trkpt>
      <trkpt lat="47.01749" lon="-1.18476">
        <ele>52</ele>
        <time>2012-10-21T07:18:09Z</time>
      </trkpt>
      <trkpt lat="47.01736" lon="-1.18632">
        <ele>52.8</ele>
        <time>2012-10-21T07:18:09Z</time>
      </trkpt>
      <trkpt lat="47.01675" lon="-1.1872">
        <ele>52.7</ele>
        <time>2012-10-21T07:18:09Z</time>
      </trkpt>
      <trkpt lat="47.01623" lon="-1.18828">
        <ele>53</ele>
        <time>2012-10-21T07:18:09Z</time>
      </trkpt>
      <trkpt lat="47.0156" lon="-1.18924">
        <ele>53.6</ele>
        <time>2012-10-21T07:18:09Z</time>
      </trkpt>
      <trkpt lat="47.01496" lon="-1.19012">
        <ele>54</ele>
        <time>2012-10-21T07:18:09Z</time>
      </trkpt>
      <trkpt lat="47.01462" lon="-1.19088">
        <ele>54.3</ele>
        <time>2012-10-21T07:18:09Z</time>
      </trkpt>
      <trkpt lat="47.01455" lon="-1.19168">
        <ele>54.8</ele>
        <time>2012-10-21T07:18:09Z</time>
      </trkpt>
      <trkpt lat="47.01388" lon="-1.19257">
        <ele>54.3</ele>
        <time>2012-10-21T07:18:09Z</time>
      </trkpt>
      <trkpt lat="47.01363" lon="-1.19365">
        <ele>57.2</ele>
        <time>2012-10-21T07:18:09Z</time>
      </trkpt>
      <trkpt lat="47.01396" lon="-1.19506">
        <ele>59.9</ele>
        <time>2012-10-21T07:18:09Z</time>
      </trkpt>
      <trkpt lat="47.01422" lon="-1.19538">
        <ele>61.1</ele>
        <time>2012-10-21T07:18:09Z</time>
      </trkpt>
      <trkpt lat="47.01424" lon="-1.19539">
        <ele>61.2</ele>
        <time>2012-10-21T07:18:09Z</time>
      </trkpt>
      <trkpt lat="47.01427" lon="-1.1954">
        <ele>61.2</ele>
        <time>2012-10-21T07:18:09Z</time>
      </trkpt>
      <trkpt lat="47.01429" lon="-1.19541">
        <ele>61.2</ele>
        <time>2012-10-21T07:18:09Z</time>
      </trkpt>
      <trkpt lat="47.01431" lon="-1.19541">
        <ele>61.3</ele>
        <time>2012-10-21T07:18:09Z</time>
      </trkpt>
      <trkpt lat="47.01433" lon="-1.19542">
        <ele>61.3</ele>
        <time>2012-10-21T07:18:09Z</time>
      </trkpt>
      <trkpt lat="47.01435" lon="-1.19543">
        <ele>61.3</ele>
        <time>2012-10-21T07:18:09Z</time>
      </trkpt>
      <trkpt lat="47.01437" lon="-1.19543">
        <ele>61.3</ele>
        <time>2012-10-21T07:18:09Z</time>
      </trkpt>
      <trkpt lat="47.01439" lon="-1.19544">
        <ele>61.3</ele>
        <time>2012-10-21T07:18:09Z</time>
      </trkpt>
      <trkpt lat="47.01441" lon="-1.19545">
        <ele>61.3</ele>
        <time>2012-10-21T07:18:09Z</time>
      </trkpt>
      <trkpt lat="47.01443" lon="-1.19545">
        <ele>61.4</ele>
        <time>2012-10-21T07:18:09Z</time>
      </trkpt>
      <trkpt lat="47.01445" lon="-1.19546">
        <ele>61.4</ele>
        <time>2012-10-21T07:18:09Z</time>
      </trkpt>
      <trkpt lat="47.01447" lon="-1.19546">
        <ele>61.4</ele>
        <time>2012-10-21T07:18:09Z</time>
      </trkpt>
      <trkpt lat="47.0145" lon="-1.19545">
        <ele>61.5</ele>
        <time>2012-10-21T07:18:09Z</time>
      </trkpt>
      <trkpt lat="47.01453" lon="-1.19547">
        <ele>61.5</ele>
        <time>2012-10-21T07:18:09Z</time>
      </trkpt>
      <trkpt lat="47.01455" lon="-1.19547">
        <ele>61.6</ele>
        <time>2012-10-21T07:18:09Z</time>
      </trkpt>
      <trkpt lat="47.01456" lon="-1.19549">
        <ele>61.6</ele>
        <time>2012-10-21T07:18:09Z</time>
      </trkpt>
      <trkpt lat="47.01458" lon="-1.19552">
        <ele>61.6</ele>
        <time>2012-10-21T07:18:09Z</time>
      </trkpt>
      <trkpt lat="47.0146" lon="-1.19554">
        <ele>61.6</ele>
        <time>2012-10-21T07:18:09Z</time>
      </trkpt>
      <trkpt lat="47.01462" lon="-1.19555">
        <ele>61.6</ele>
        <time>2012-10-21T07:18:09Z</time>
      </trkpt>
      <trkpt lat="47.01462" lon="-1.19557">
        <ele>61.7</ele>
        <time>2012-10-21T07:18:09Z</time>
      </trkpt>
      <trkpt lat="47.01464" lon="-1.19559">
        <ele>61.8</ele>
        <time>2012-10-21T07:18:09Z</time>
      </trkpt>
      <trkpt lat="47.01464" lon="-1.19559">
        <ele>61.8</ele>
        <time>2012-10-21T07:18:09Z</time>
      </trkpt>
    </trkseg>
  </trk>
</gpx>